Theta_e
332 338 336 335 335 339 352 351 352 353 351 350 348 349 350 349 348 348 349 350 349 348 347 345 343 343 344 345 343 345 342 345 346 350 344 344 344 345 346 346 345 346 347 347 346 347 346 350 350 346 347 346 347 346 347 349 348 348 346 345 339 339 338 339 336 334 330 327 329 329 330 332 333 334 333 334 330 329 327 323 324 324 324 323 322
332 336 335 335 333 336 344 351 351 351 351 351 348 348 349 349 348 349 349 349 349 348 347 346 346 344 343 343 344 343 342 341 342 345 348 346 346 345 346 345 345 346 347 348 347 347 346 348 348 346 346 346 348 348 348 348 350 345 345 342 341 338 336 337 335 332 328 325 323 323 325 328 330 330 329 328 328 330 328 323 323 323 322 321 321
328 332 334 334 339 337 344 350 350 351 351 350 350 349 349 348 348 349 349 349 349 349 348 346 347 348 347 346 345 343 346 346 344 345 349 345 348 345 346 345 345 345 347 348 347 347 347 348 348 347 345 346 347 346 346 346 347 344 344 341 339 340 338 338 335 334 327 328 326 322 319 319 324 327 329 328 328 326 328 326 324 321 320 321 321
324 328 330 337 345 344 345 349 350 351 350 351 350 348 348 347 347 349 349 350 350 349 348 349 350 350 350 349 349 345 343 346 347 347 350 351 346 345 346 346 345 346 346 347 347 348 347 348 349 349 345 346 348 345 344 344 346 345 344 343 341 335 335 334 338 339 332 327 320 321 320 321 315 318 321 322 324 324 323 323 324 321 322 322 320
324 329 328 338 347 347 348 349 350 350 350 349 349 348 348 347 347 347 348 349 349 349 349 350 349 349 348 349 349 346 346 345 344 341 343 345 344 345 345 346 345 346 346 346 346 348 348 349 348 347 347 346 347 345 344 343 345 344 345 343 340 336 334 335 338 340 335 332 328 323 319 318 318 319 319 318 323 321 319 320 324 320 322 323 321
323 329 333 341 347 345 347 349 349 350 350 349 349 349 348 347 348 348 349 349 348 349 350 349 347 346 344 342 340 340 338 339 337 338 339 339 340 344 346 345 345 345 346 346 345 348 348 349 350 348 346 347 346 348 345 345 344 343 343 343 342 340 336 335 333 338 339 338 339 335 333 321 320 319 317 311 320 324 324 323 321 322 321 322 321
325 326 331 342 343 343 344 348 349 349 351 351 351 350 350 349 348 348 348 348 349 349 349 349 348 346 345 342 341 340 338 339 342 345 342 342 345 343 344 347 345 346 346 346 346 348 348 348 348 349 347 347 348 348 347 345 342 341 343 342 342 338 337 331 332 333 334 334 337 338 336 335 327 319 316 316 311 317 319 320 319 319 318 318 317
318 326 328 338 342 340 343 346 348 350 351 351 350 351 350 350 349 348 348 348 349 349 349 350 348 346 345 343 343 342 341 340 342 345 347 345 344 345 344 347 346 346 347 346 347 347 347 348 348 349 347 346 345 345 345 347 346 345 345 343 341 336 336 333 331 333 329 328 333 335 335 336 326 326 324 318 315 310 312 317 319 319 317 318 317
315 317 323 338 341 342 342 345 348 351 351 349 350 350 351 351 350 349 348 348 349 350 349 349 349 348 346 345 344 344 344 344 344 345 345 345 345 345 344 344 345 346 346 347 347 346 347 347 347 346 347 345 344 344 344 344 346 345 344 343 341 335 334 336 334 333 332 330 330 331 334 331 326 328 327 324 318 313 312 312 313 317 321 321 320
314 315 331 334 338 341 343 345 348 349 351 351 352 352 352 351 350 349 348 348 349 349 349 349 350 348 346 346 345 343 345 344 343 344 345 346 344 344 344 344 343 346 348 347 347 347 347 347 347 346 346 346 343 342 343 344 346 345 345 344 344 340 336 334 333 333 333 334 333 330 329 329 325 325 326 324 323 320 313 312 314 310 310 315 320
312 315 330 332 341 344 343 345 346 350 352 352 352 352 352 352 350 348 349 349 349 349 349 348 350 349 347 347 346 344 345 345 342 342 343 344 343 343 344 344 343 345 348 348 348 347 347 347 346 346 347 346 345 343 347 347 347 346 346 346 344 343 340 335 334 334 333 331 331 332 330 329 325 323 323 323 321 318 315 313 315 312 312 312 315
312 313 315 332 335 341 343 342 345 348 350 351 351 351 351 350 349 348 349 350 349 350 349 348 349 349 349 348 348 347 346 345 343 341 342 342 343 342 344 345 344 346 348 347 347 347 347 347 348 347 346 347 345 351 348 350 349 347 346 345 344 343 343 340 333 332 332 331 330 330 331 331 329 327 326 325 322 320 317 314 314 313 314 313 315
310 312 314 317 328 336 341 341 344 347 346 348 349 349 349 349 349 347 348 350 350 350 349 349 349 349 349 349 349 349 347 348 345 343 343 342 343 343 343 343 344 345 346 346 347 348 347 348 347 346 345 346 346 347 347 346 346 346 344 344 343 342 342 342 338 332 330 330 328 331 331 330 330 330 330 327 326 325 321 316 318 316 312 313 313
310 312 313 315 320 333 340 341 346 348 345 346 348 347 347 348 349 348 348 350 350 350 350 349 349 350 350 350 350 350 348 350 346 344 345 344 345 344 343 343 344 345 345 346 348 348 348 349 349 348 348 347 344 343 342 343 342 342 342 341 341 341 342 341 340 338 333 331 331 329 329 329 329 330 330 328 325 321 318 316 314 314 316 312 313
310 311 312 314 320 330 333 336 343 346 345 346 346 346 346 347 348 348 348 349 350 350 349 349 349 350 350 350 351 351 350 351 348 347 347 346 346 346 345 346 346 346 346 347 349 348 348 349 349 348 346 343 342 340 341 340 340 340 339 338 339 340 340 340 339 339 336 331 331 329 330 330 329 330 330 328 326 323 321 320 316 311 311 310 308
310 311 311 315 321 326 331 331 336 346 348 347 346 346 346 346 347 348 348 349 349 349 349 349 349 349 349 349 351 351 350 351 350 348 349 349 348 348 347 347 348 347 348 348 349 349 349 349 348 348 346 341 340 339 340 339 339 339 337 336 335 339 337 337 338 339 338 336 333 331 330 330 329 330 329 327 326 325 323 321 319 314 308 305 308
311 311 312 315 321 323 329 330 331 338 345 347 347 347 347 347 347 347 349 349 349 349 349 349 349 348 349 350 351 351 351 350 349 349 349 351 350 349 347 348 349 349 349 350 349 349 349 348 346 347 347 341 340 340 339 338 338 337 337 336 336 338 338 337 338 338 337 336 333 332 331 328 329 328 327 327 325 325 324 323 322 316 312 308 305
316 312 314 315 321 322 326 327 330 332 339 345 347 348 348 348 348 347 347 347 348 349 349 349 349 348 349 349 351 352 351 351 351 350 349 349 349 350 348 348 349 349 349 350 349 348 348 349 347 347 348 345 341 340 339 338 337 335 335 335 337 339 338 338 338 337 335 332 330 329 330 327 329 327 326 326 325 324 323 324 321 319 317 310 309
311 314 320 318 322 326 325 325 327 330 333 343 346 348 348 348 348 347 345 347 349 349 349 350 350 349 349 349 350 351 352 351 352 352 350 348 348 348 348 348 349 349 348 348 348 347 347 346 346 345 346 346 344 341 339 338 336 335 336 336 336 334 334 335 337 337 334 331 329 329 329 328 328 327 326 325 325 325 325 327 320 319 319 316 312
309 311 315 321 327 328 327 327 324 328 329 333 342 346 346 347 347 346 346 348 349 348 349 349 349 349 349 350 351 351 351 351 351 351 350 347 348 348 349 348 348 348 348 348 347 346 346 345 345 345 345 344 343 342 341 340 338 338 335 334 333 332 332 332 333 334 334 331 330 328 328 328 328 327 326 325 324 325 326 326 322 319 320 320 320
310 311 312 315 318 326 325 328 323 327 328 328 331 338 344 345 346 347 346 346 347 348 348 349 349 349 348 349 349 350 351 351 351 352 351 349 349 348 349 350 349 348 348 347 346 345 344 344 344 343 342 341 341 340 340 338 337 336 334 333 332 332 329 330 331 330 330 331 330 327 326 327 328 327 326 324 325 325 326 325 324 320 321 321 320
309 310 312 312 314 318 320 322 327 323 326 327 326 331 337 343 344 344 345 346 347 347 347 348 349 349 349 349 349 351 351 351 350 351 351 350 349 349 350 350 348 348 348 346 345 345 344 344 342 342 340 340 339 338 338 337 335 335 333 333 332 329 329 330 329 327 328 329 330 327 326 326 327 326 326 325 325 324 325 324 323 320 319 320 322
309 310 310 311 312 313 315 319 320 321 324 326 328 327 329 337 343 343 341 342 346 349 349 348 348 349 348 349 350 350 351 351 350 350 350 349 350 349 350 349 348 348 347 346 345 344 343 342 341 340 340 339 337 337 337 336 334 333 332 332 330 329 329 329 327 326 325 327 328 327 326 326 326 325 325 324 325 324 324 323 322 321 320 320 322
310 309 310 310 311 312 311 313 315 318 319 321 324 325 327 329 338 342 341 341 343 348 349 349 349 348 349 349 349 351 351 350 349 349 350 349 349 349 349 349 348 348 345 345 345 343 342 341 340 340 339 338 337 336 335 335 333 332 331 330 330 330 330 329 327 326 325 326 325 326 326 325 325 324 323 324 324 324 323 322 322 322 322 322 323
308 310 310 311 311 310 310 310 311 314 317 319 321 322 322 325 329 338 341 342 341 346 348 348 348 347 347 347 348 350 349 349 348 349 350 350 349 348 348 348 348 346 345 344 343 342 341 340 339 339 337 336 335 335 333 334 333 332 331 330 329 328 329 328 328 327 328 325 325 325 325 325 325 323 323 323 323 323 324 323 322 323 322 323 324
310 310 311 311 311 311 310 310 310 311 313 317 320 321 322 323 326 332 338 340 340 343 348 347 347 346 346 346 347 348 348 348 348 348 349 349 348 348 348 347 347 344 344 344 342 341 340 339 339 338 337 335 334 333 332 332 331 332 331 330 329 329 328 328 327 327 327 325 324 324 324 324 323 323 323 324 324 324 324 324 323 323 323 323 322
306 308 308 309 310 312 311 313 312 312 313 315 317 319 320 323 326 329 336 340 340 343 347 347 346 346 345 346 346 347 348 348 347 348 349 349 348 347 347 346 345 344 343 342 341 340 340 339 338 337 336 334 333 332 331 331 331 331 331 330 330 329 328 329 327 324 325 327 326 325 324 324 324 323 324 324 323 324 325 323 323 324 323 321 320
305 307 310 310 312 315 317 318 318 316 315 315 316 318 319 321 324 328 333 339 341 341 344 346 346 346 345 345 346 347 348 348 348 349 349 348 348 347 346 346 344 343 342 341 340 340 340 339 338 337 336 334 333 332 332 331 331 330 331 330 330 327 326 327 326 324 324 324 324 324 323 323 323 322 323 324 324 324 324 322 323 324 322 319 318
304 303 309 311 312 314 316 317 319 319 317 318 316 317 319 320 323 326 329 336 340 340 341 344 346 345 345 345 346 347 348 348 347 348 348 347 347 347 346 345 343 343 342 341 340 340 339 338 337 337 336 335 333 332 332 331 330 330 330 329 329 327 326 324 323 323 322 322 322 321 321 320 319 316 311 311 312 318 325 321 323 323 320 319 317
302 304 307 310 312 315 317 318 319 318 318 316 316 316 317 319 321 325 328 335 340 340 340 342 344 345 345 345 345 346 347 347 347 347 346 346 346 346 344 343 342 342 341 341 340 339 338 337 336 336 335 334 333 333 328 322 323 329 328 328 328 326 324 322 321 320 320 319 319 319 318 321 318 314 308 303 302 304 307 313 320 321 321 319 317
302 303 305 306 308 312 316 316 317 317 317 318 317 316 317 318 320 324 328 335 339 339 339 340 343 346 346 344 344 345 346 345 345 346 346 346 345 345 343 342 341 341 341 340 339 338 337 337 336 334 334 333 333 329 311 308 310 313 327 328 326 324 321 320 319 318 317 317 318 319 316 317 318 315 306 300 299 299 299 299 300 303 309 319 317
301 303 304 305 305 310 314 314 315 317 318 317 318 317 317 316 319 322 329 335 337 338 337 338 342 345 345 344 343 344 344 344 344 345 345 346 345 344 342 341 340 340 339 340 338 338 337 336 335 334 333 332 327 310 302 305 306 307 317 329 326 322 320 318 318 318 318 317 319 319 317 317 315 315 311 308 304 299 297 297 297 297 296 296 300
302 302 304 304 305 308 314 315 315 316 318 318 317 316 317 318 319 323 330 334 335 337 337 338 342 344 344 344 343 342 342 342 343 344 345 345 343 342 341 340 339 339 339 338 338 337 336 336 335 333 331 330 321 303 302 302 303 303 304 318 324 323 320 319 319 319 318 318 319 316 314 315 314 320 316 313 309 305 301 300 301 302 301 299 295
305 305 305 307 308 310 312 315 318 319 320 321 319 317 319 322 321 325 329 333 334 336 337 337 339 341 343 342 342 341 340 340 342 343 344 343 341 340 340 339 339 338 338 338 338 337 336 335 334 332 331 327 320 304 302 301 302 302 302 312 326 325 323 322 321 321 320 319 320 316 313 315 314 314 313 314 312 310 309 309 312 312 308 307 302
304 306 308 309 310 313 316 317 318 319 322 324 322 319 319 320 322 325 329 332 334 336 337 338 339 342 343 342 341 340 339 340 341 343 342 341 340 339 339 338 338 337 337 337 337 335 334 334 333 332 330 325 320 301 301 301 301 301 300 308 327 326 324 323 322 322 321 320 320 319 317 315 313 313 315 313 312 311 311 313 312 313 311 308 305
304 306 308 309 310 312 316 319 321 321 321 323 324 321 318 318 320 322 326 331 332 334 338 337 338 340 340 341 340 340 339 340 341 342 341 340 339 339 338 337 337 338 338 338 338 335 333 333 333 332 329 324 315 298 300 300 301 300 301 319 326 323 323 322 321 321 321 320 320 320 318 315 312 314 311 304 308 312 311 310 310 309 304 301 299
310 312 313 316 317 317 318 319 319 321 324 325 325 322 319 318 319 320 323 329 332 332 334 336 336 338 339 340 340 339 339 340 341 341 340 339 338 338 338 337 337 337 336 335 335 335 334 333 332 331 328 320 310 300 299 299 300 299 307 320 324 320 321 320 320 321 321 320 321 320 319 315 313 311 301 298 301 308 310 309 309 307 305 302 301
310 312 313 313 315 316 317 318 318 319 323 328 326 322 318 317 318 319 321 329 330 331 332 335 336 338 339 339 339 339 339 339 340 340 339 339 339 338 338 336 336 335 334 334 335 334 334 333 331 331 325 317 312 303 297 299 299 299 310 320 321 319 319 319 319 320 320 319 317 318 322 318 313 308 297 297 297 307 310 308 308 307 304 301 301
309 310 310 311 313 315 316 317 319 319 321 325 328 323 318 317 317 318 322 329 330 330 331 333 335 336 338 338 338 338 340 340 340 339 339 338 338 337 337 336 336 336 335 335 334 333 332 332 332 330 319 318 313 304 297 298 299 298 308 320 320 318 318 318 317 317 319 317 315 313 311 314 312 305 296 297 297 307 311 310 309 307 305 303 302
308 311 312 312 313 314 314 316 317 321 325 326 328 324 319 317 317 319 325 328 328 327 328 332 335 337 336 337 338 338 340 341 340 339 339 338 338 337 336 335 335 335 334 335 333 333 331 331 331 328 322 319 312 307 301 297 299 299 301 318 321 318 317 317 316 316 316 316 314 310 304 298 298 295 295 295 296 299 311 313 311 308 306 304 304
311 311 310 311 311 313 312 316 319 324 327 327 328 324 319 317 317 320 328 330 330 330 331 333 336 337 337 337 338 339 340 341 340 339 338 337 337 336 334 334 334 334 334 333 332 332 331 330 330 330 325 319 314 309 303 297 299 299 299 302 320 320 318 317 316 314 315 315 313 310 307 296 294 294 295 295 296 295 297 308 310 310 309 307 303
318 316 316 315 313 316 317 318 321 326 328 329 327 323 318 317 318 323 331 335 335 334 334 335 336 336 337 338 339 340 342 340 339 338 336 335 336 335 334 334 334 333 333 331 331 330 330 329 329 330 325 319 314 309 306 297 299 298 299 297 313 319 317 318 316 314 313 314 313 311 307 298 294 294 293 294 295 293 291 307 303 297 297 297 305
317 318 320 321 322 319 317 320 323 326 327 328 326 321 318 317 320 328 332 332 331 331 332 336 335 335 336 338 340 341 340 340 338 337 335 334 334 333 333 333 333 332 332 330 330 329 329 328 328 329 325 320 315 310 302 302 298 298 297 296 296 302 295 320 317 313 314 314 315 312 308 298 294 293 293 293 294 292 298 302 292 293 295 296 299
320 319 319 320 322 324 323 324 326 328 328 327 325 319 317 319 325 334 334 334 334 332 333 336 335 336 338 339 340 340 340 338 336 335 334 333 332 332 332 332 332 331 330 329 329 329 328 327 327 327 323 318 316 312 303 302 301 296 295 295 294 292 292 315 320 317 318 318 314 310 303 293 293 292 292 292 292 294 300 292 293 294 294 297 303
322 321 322 324 324 325 326 328 327 327 327 325 323 320 320 323 331 334 335 336 336 335 335 335 336 337 338 340 339 339 338 337 336 334 332 331 331 331 331 332 332 331 330 329 328 328 327 327 326 325 321 318 316 313 308 302 299 296 294 294 293 295 293 302 309 309 307 306 298 294 292 292 291 291 290 290 291 292 290 292 293 292 300 303 304
323 324 327 327 327 328 327 324 325 325 324 323 323 325 325 329 335 335 336 336 335 335 335 336 337 338 339 339 338 337 337 336 335 334 332 332 331 330 331 331 331 330 330 328 326 327 327 327 325 325 320 318 317 314 311 307 301 298 296 293 292 293 296 297 299 297 293 292 292 292 291 291 291 292 297 300 300 298 292 292 291 294 302 303 303
320 321 322 327 328 327 322 322 322 324 325 326 329 332 332 335 336 336 336 336 335 335 334 335 337 338 338 338 336 335 335 334 334 333 333 332 331 332 331 329 330 330 329 327 326 325 326 325 324 324 321 319 317 314 312 307 304 303 302 299 300 298 296 296 298 297 297 296 294 297 296 295 295 295 297 298 299 294 295 296 298 300 301 303 304
320 322 318 323 324 322 322 323 323 326 328 331 333 335 335 336 336 336 336 337 335 335 336 336 337 337 336 336 335 316 325 332 331 332 331 331 331 332 331 330 330 330 328 327 326 324 324 325 325 324 321 319 317 315 312 308 307 306 304 304 306 305 306 307 304 304 303 302 300 296 296 300 300 300 302 302 299 299 299 297 299 300 301 302 304
319 320 320 318 316 323 327 328 329 331 331 332 334 335 335 337 337 337 338 338 335 330 335 336 336 335 334 333 333 330 331 331 331 331 332 331 331 332 331 331 333 333 331 329 328 327 326 327 326 324 322 319 317 315 313 303 308 301 303 306 307 307 307 309 307 301 305 302 301 302 302 301 299 298 298 301 301 300 299 299 301 301 301 302 302
319 320 321 320 320 320 317 317 322 328 332 333 334 336 339 339 339 339 339 336 334 334 335 335 335 334 333 331 331 331 332 330 330 327 314 305 292 291 301 330 331 310 313 313 314 325 328 327 326 326 325 321 319 319 303 301 300 299 299 300 301 301 300 306 300 298 302 305 305 304 302 301 301 300 299 297 301 301 300 300 300 297 300 300 301
316 318 318 320 320 320 321 318 319 321 327 326 331 338 338 338 338 338 338 336 335 333 333 334 332 332 327 330 329 330 330 330 327 320 319 315 313 308 294 290 293 295 302 307 307 309 309 311 322 326 319 309 305 301 299 300 299 298 298 298 298 298 298 297 296 303 307 302 300 299 298 301 301 302 299 298 299 300 297 298 300 300 300 300 297
Wind_Speed
11 12 9 10 10 3 5 13 13 13 14 14 14 12 12 11 11 10 9 8 8 8 7 7 7 7 6 5 6 7 6 5 5 3 7 7 8 9 9 7 7 7 5 5 5 6 5 3 5 5 3 3 4 3 3 2 5 5 5 7 8 5 7 8 8 8 10 8 6 6 5 5 2 1 1 1 4 3 3 4 5 4 4 3 4
16 11 11 9 9 11 10 12 12 14 13 13 13 13 11 12 11 10 9 9 9 8 7 7 7 7 7 6 6 7 6 6 5 4 4 6 7 8 8 9 7 6 6 5 6 6 5 4 3 5 4 3 3 4 3 2 3 5 5 4 7 7 6 9 8 9 5 6 6 5 5 4 5 3 2 4 5 3 2 4 4 4 4 5 4
15 15 15 14 17 18 14 13 14 13 15 14 13 12 11 10 9 10 9 10 9 10 9 8 7 7 6 6 7 6 5 5 4 4 3 6 6 8 7 8 8 7 7 6 6 6 5 5 4 5 5 4 3 4 3 3 2 5 4 5 6 5 6 8 8 5 7 7 6 7 4 3 2 2 1 2 2 3 1 2 2 4 7 4 4
18 19 18 17 16 18 14 15 15 13 14 14 14 16 13 11 10 9 10 10 10 10 9 9 8 7 8 6 7 6 6 6 6 5 3 4 7 8 7 7 8 7 8 7 6 6 6 5 3 3 5 4 3 4 3 3 3 4 4 4 5 7 6 6 7 3 8 10 7 5 6 4 4 4 4 2 4 4 4 1 0 3 4 4 5
19 19 20 19 18 17 14 13 16 15 14 15 15 15 11 14 13 11 10 9 9 9 11 10 10 9 9 8 7 8 7 7 6 7 5 4 5 5 6 6 7 7 8 8 8 7 6 5 4 4 4 4 3 3 4 4 4 4 4 4 5 7 7 6 4 3 8 8 6 6 4 4 4 7 6 1 1 1 3 5 3 4 2 2 3
19 19 21 18 16 18 14 13 15 15 15 14 15 15 14 13 14 13 9 9 10 11 12 10 10 9 10 10 10 9 10 9 10 10 8 7 7 5 5 7 8 7 7 8 9 7 6 6 3 4 5 4 5 3 3 4 4 5 5 5 4 6 8 7 4 2 2 6 3 2 2 2 5 8 7 4 2 1 2 3 4 3 3 2 2
15 16 18 17 15 14 13 13 14 15 14 15 13 11 12 12 13 14 11 10 10 11 13 10 11 9 10 10 9 10 10 7 6 6 7 7 5 8 6 6 8 8 7 8 8 8 8 6 5 4 4 4 4 3 3 4 5 5 5 6 5 6 7 7 8 6 2 3 2 1 3 1 6 11 5 7 5 2 2 2 2 5 6 6 5
7 16 17 15 14 16 15 13 12 13 14 15 13 12 14 13 13 14 11 12 11 12 14 12 10 10 10 9 8 8 8 8 9 6 6 7 6 8 7 6 7 8 7 8 8 7 8 7 6 4 4 5 4 5 4 3 3 4 5 6 7 6 5 7 7 6 8 5 4 3 2 1 9 3 8 9 8 8 6 3 3 6 6 5 6
9 9 18 14 15 14 13 12 11 12 12 14 16 14 13 13 13 13 12 12 12 14 13 13 10 10 9 8 8 7 7 7 8 7 7 7 7 7 7 7 7 7 8 8 8 8 7 6 7 5 4 4 5 5 5 5 5 4 4 5 8 7 5 5 5 7 7 7 6 5 3 3 6 4 5 4 4 7 6 8 6 5 2 3 4
12 8 14 18 13 13 13 12 11 11 11 12 14 15 14 13 13 14 12 11 12 14 13 13 11 10 10 9 9 9 7 8 8 8 7 8 8 9 8 8 8 7 7 8 7 8 8 8 7 7 6 5 5 5 6 5 5 5 4 5 5 9 6 5 7 4 6 5 6 6 5 4 4 4 3 5 2 4 8 10 9 9 7 4 2
9 7 14 13 14 13 13 13 13 11 10 13 14 15 13 13 15 15 13 11 11 13 15 14 12 11 11 11 10 10 10 10 10 10 9 9 9 10 9 8 7 8 6 6 7 8 8 8 7 6 5 5 5 6 3 3 5 4 4 4 5 5 7 9 5 4 4 5 5 5 8 9 9 8 8 7 6 5 6 8 9 9 8 8 6
13 12 11 15 13 12 12 13 14 14 12 10 12 13 14 14 15 16 14 13 12 13 14 14 12 12 12 12 11 10 10 10 11 12 11 11 10 10 9 8 8 7 7 7 7 8 7 7 6 6 5 4 6 2 2 1 2 2 2 3 4 4 4 7 9 7 6 4 4 5 6 6 6 6 6 8 8 7 8 8 7 8 7 6 6
15 14 11 8 13 15 14 14 13 15 14 14 12 12 13 14 15 15 14 14 13 14 15 14 13 12 12 12 10 10 11 10 11 11 10 11 9 10 9 9 8 8 8 8 7 8 6 6 7 6 6 7 5 4 2 1 1 1 2 3 3 4 5 5 7 10 9 6 8 5 5 6 6 3 4 7 5 5 7 8 3 8 7 7 7
16 13 12 12 11 15 18 16 14 14 16 16 14 11 13 13 15 16 16 15 13 13 14 14 14 12 11 11 10 9 11 9 10 10 9 9 9 9 10 9 9 8 9 9 8 8 6 5 6 6 4 4 5 4 3 2 2 1 0 1 2 2 1 4 5 6 10 9 9 8 7 7 7 5 4 5 6 8 8 9 7 6 2 5 4
17 14 14 14 12 14 16 16 14 15 15 14 13 13 11 14 14 16 16 16 14 14 14 15 13 12 10 10 10 9 10 8 8 8 9 9 8 9 9 9 8 8 8 8 8 7 7 5 6 6 6 5 3 3 3 3 4 4 3 1 1 1 2 3 3 3 7 7 7 10 8 6 5 5 4 5 7 8 8 7 9 9 4 4 4
16 14 16 14 11 14 15 14 14 15 16 15 16 14 14 14 16 16 16 16 15 16 14 14 13 11 11 11 11 10 9 7 7 8 9 9 9 9 10 9 7 8 7 8 7 7 6 6 6 6 8 6 4 4 4 3 3 5 4 3 2 1 2 2 3 3 4 8 9 8 9 9 4 4 6 7 7 7 9 7 7 8 9 5 3
11 12 11 11 10 12 13 14 14 15 15 15 16 16 16 16 16 17 15 14 15 14 14 14 13 12 12 12 11 11 11 10 9 10 10 9 8 8 9 9 8 8 7 7 7 7 7 6 6 6 7 10 6 5 3 2 2 2 6 5 3 4 4 3 4 4 2 3 4 6 5 4 5 6 6 6 7 8 8 8 7 8 7 9 7
3 16 12 12 9 13 13 12 13 14 16 16 17 16 15 14 16 17 16 16 15 14 12 12 13 13 13 13 11 11 11 10 9 9 10 9 8 7 8 9 8 8 7 7 7 7 6 7 5 5 4 7 9 6 4 2 3 3 1 0 1 1 1 2 1 1 5 4 4 5 5 6 7 8 9 9 10 10 9 7 6 4 4 8 7
6 5 4 8 6 7 10 12 13 13 12 14 15 15 14 13 13 15 16 16 15 13 13 11 12 10 10 12 12 12 11 10 9 9 9 10 10 9 10 9 8 8 7 7 8 7 6 6 5 5 5 3 7 8 7 5 4 3 2 2 1 1 0 0 1 1 5 5 5 5 5 7 7 8 8 8 8 8 6 6 6 5 5 6 7
6 6 5 3 2 2 4 8 12 12 11 10 13 13 15 13 14 14 13 14 14 14 12 12 12 11 11 11 11 11 11 11 10 9 10 11 10 9 9 9 9 8 7 8 8 8 7 7 5 6 6 5 4 5 7 7 6 3 1 1 2 2 2 1 2 2 3 5 5 6 5 6 6 7 7 6 7 7 6 6 6 7 6 5 5
7 6 5 5 4 3 3 5 9 12 10 9 9 12 14 14 14 15 16 15 15 15 14 12 12 12 12 13 12 12 12 11 11 10 9 11 9 9 8 8 8 8 8 8 8 8 8 7 6 6 7 6 5 5 5 5 4 4 3 1 0 2 3 2 0 2 5 7 7 8 8 6 7 7 7 7 7 7 6 6 4 7 5 5 5
9 9 7 7 6 5 5 3 3 5 10 12 12 10 11 14 14 14 14 15 15 15 14 13 12 12 12 12 13 11 11 11 11 10 9 10 10 9 8 8 9 8 9 9 10 8 8 8 7 7 7 8 7 6 6 4 4 4 4 3 2 4 4 1 2 3 1 4 6 9 8 8 7 7 7 6 6 7 6 6 5 7 6 6 5
11 10 10 9 9 9 7 7 6 7 5 8 10 11 11 12 15 14 14 14 14 15 14 14 13 13 14 12 12 12 11 11 11 10 10 10 9 9 8 9 9 9 9 9 9 8 9 9 8 7 7 8 7 7 6 6 5 6 6 6 5 5 5 3 2 3 3 3 2 4 8 8 7 7 8 7 6 6 6 7 6 6 7 6 6
13 12 12 12 11 11 12 11 11 10 9 9 9 11 11 11 13 15 15 14 14 14 15 15 13 13 13 12 12 13 14 13 12 11 12 11 9 9 9 10 10 9 10 10 7 9 9 8 8 8 8 8 8 6 6 6 7 7 7 8 6 6 6 5 4 5 4 5 4 4 7 8 7 7 8 7 7 6 6 7 6 6 6 6 5
15 13 13 13 14 14 14 14 13 12 12 12 12 13 13 13 13 14 15 14 14 14 15 15 14 14 13 13 12 12 14 14 12 11 12 11 10 9 9 10 9 10 9 10 9 10 9 9 8 9 9 9 7 8 7 7 7 7 8 7 5 5 4 5 7 5 4 6 4 4 7 7 6 5 6 6 7 8 8 7 7 6 7 6 5
7 11 11 13 13 14 14 14 14 14 14 13 13 13 13 14 15 14 14 15 14 13 14 14 14 14 14 14 12 12 14 14 13 11 12 11 11 10 10 9 10 11 10 10 10 10 9 9 9 9 10 9 8 8 7 7 7 7 6 6 6 5 5 7 7 5 2 6 5 3 4 5 6 6 6 6 6 8 7 6 6 7 6 6 6
11 10 13 12 12 13 13 11 12 13 13 12 13 15 14 13 14 15 14 15 15 13 15 14 14 14 14 14 13 12 12 13 12 11 10 10 10 11 11 11 10 10 11 10 9 10 9 9 10 9 10 9 8 9 7 7 6 8 6 7 7 6 5 3 2 5 3 2 1 2 4 4 4 4 4 5 4 5 7 5 5 4 4 6 7
16 12 10 12 11 9 7 7 8 10 11 13 13 14 15 13 13 14 15 14 13 14 15 15 14 13 13 14 14 13 12 13 12 11 11 11 10 10 10 10 10 11 11 11 11 10 9 8 8 8 9 9 10 10 9 8 6 6 4 4 3 4 3 2 3 3 3 2 1 2 3 3 2 1 1 1 1 1 0 0 1 2 1 6 5
20 22 15 13 13 11 11 11 11 10 12 11 13 13 13 13 12 13 14 15 14 15 15 15 14 14 13 13 13 12 11 12 13 12 12 12 11 11 11 10 10 10 9 11 9 10 10 10 10 8 9 8 9 9 7 8 6 7 6 5 3 3 3 3 2 3 3 3 2 3 2 3 7 8 11 9 8 7 1 1 1 1 1 4 4
16 17 17 15 14 14 13 11 10 12 12 13 12 12 14 14 13 12 15 14 14 15 15 15 15 14 13 13 13 12 13 13 14 13 13 12 11 12 11 10 11 10 10 9 10 9 9 9 10 9 7 8 7 7 9 14 9 6 7 5 4 4 4 4 3 3 3 3 3 4 6 10 10 11 11 11 10 11 10 7 2 0 0 3 4
19 17 12 11 10 12 13 12 13 14 14 13 12 12 12 14 14 14 14 14 14 15 15 15 15 15 14 14 13 13 14 14 14 13 13 12 13 12 12 12 12 11 11 10 10 11 10 10 10 9 7 8 6 5 15 15 9 5 9 5 6 5 7 5 5 4 4 5 4 6 4 6 8 8 8 11 10 11 12 12 12 12 10 3 1
20 16 16 19 19 15 13 13 13 14 15 16 13 13 12 13 14 15 13 14 14 14 16 15 15 16 15 16 14 14 15 15 14 14 14 13 12 12 12 12 12 12 11 10 11 11 12 9 8 9 7 7 7 11 14 14 14 9 6 5 5 6 6 6 5 5 5 5 5 6 4 3 4 5 6 7 8 10 12 12 12 12 13 13 11
19 20 22 24 23 18 14 13 14 14 15 17 17 14 14 12 14 13 12 13 14 15 15 16 16 16 16 15 14 15 16 15 15 15 13 13 13 14 13 13 13 11 11 11 12 11 11 8 9 9 9 8 8 13 14 14 13 12 8 4 6 5 6 6 5 6 6 5 4 6 4 3 4 9 6 6 6 6 8 10 10 11 11 11 10
18 18 18 16 16 14 12 11 10 11 13 13 15 15 12 10 11 13 13 14 15 15 15 15 15 16 16 15 15 14 15 15 15 14 13 14 14 14 13 12 11 11 11 10 10 11 10 10 9 9 9 8 9 12 15 13 12 13 9 3 4 5 5 5 6 6 5 5 5 6 6 4 5 4 4 5 5 6 5 4 3 4 5 4 8
19 17 16 18 14 8 9 10 10 10 10 11 14 13 12 13 10 13 14 14 15 15 15 14 14 15 15 15 16 16 15 15 15 14 14 14 14 14 13 12 11 11 11 12 11 11 9 9 8 9 8 9 8 14 15 14 13 12 10 4 2 5 4 5 5 4 5 5 5 6 5 7 6 4 5 7 5 5 5 4 3 3 5 7 6
20 20 16 13 13 12 10 7 6 9 12 13 13 12 13 14 13 12 13 14 15 15 15 14 14 15 15 15 16 15 15 14 15 14 16 15 14 14 14 12 10 10 10 10 9 10 11 10 9 10 9 10 9 15 16 15 14 12 10 4 2 5 4 5 4 4 4 4 4 5 6 7 6 4 10 14 8 6 6 5 5 5 8 7 6
9 7 7 7 6 7 7 7 9 12 13 12 12 14 14 14 14 13 13 14 15 15 14 13 13 14 15 15 15 15 15 15 15 15 16 15 14 14 13 11 11 11 11 11 10 9 10 10 10 9 10 10 8 11 15 15 15 14 8 4 3 4 4 5 4 4 3 4 3 3 4 7 6 6 10 12 12 10 6 6 6 7 6 7 5
11 10 10 12 11 10 10 10 12 15 17 14 12 13 14 15 15 15 14 14 15 15 13 12 12 13 14 13 14 15 14 15 15 16 16 14 13 12 12 12 12 12 12 11 9 8 9 9 10 10 11 12 9 10 14 15 15 14 10 5 4 5 5 5 5 4 4 5 7 10 4 5 8 8 12 12 9 6 5 5 5 7 8 7 5
16 16 17 17 15 15 15 15 15 18 20 19 16 14 16 16 15 15 14 14 15 14 14 13 13 13 13 13 14 14 14 15 16 15 14 14 15 14 12 11 11 11 10 10 8 8 8 8 9 9 15 15 8 10 12 15 15 14 11 5 6 5 6 5 5 5 4 6 4 6 8 8 11 11 14 11 9 5 4 5 5 6 7 8 6
20 19 19 19 19 18 18 19 20 20 19 21 19 15 15 16 16 14 13 14 15 14 14 13 12 12 13 13 12 13 13 14 15 15 13 13 12 11 12 12 11 10 10 10 9 9 10 9 8 10 11 13 10 8 11 16 15 15 15 7 5 5 7 6 5 6 5 6 5 4 7 12 13 12 11 11 9 4 2 1 3 5 5 8 8
20 20 19 19 21 21 22 21 20 20 19 19 19 17 16 17 16 14 13 15 15 13 13 14 13 13 14 14 12 13 13 13 14 13 12 12 11 12 12 12 11 10 10 9 11 9 10 8 8 9 10 10 10 11 11 16 16 16 16 12 3 5 6 5 6 6 5 7 6 5 5 10 13 10 8 7 5 5 3 2 4 3 4 8 11
17 17 17 19 21 21 22 22 22 21 20 18 19 18 16 17 16 14 13 13 14 13 12 13 13 13 13 13 12 12 14 12 12 13 12 12 10 11 12 11 10 10 11 10 10 9 9 8 8 9 10 11 14 20 12 14 17 16 17 13 2 3 1 7 5 6 5 7 8 8 7 10 14 12 10 8 7 6 4 2 3 2 13 17 10
19 19 20 18 19 21 23 22 21 21 19 20 20 19 17 17 16 13 13 14 14 13 13 13 13 12 12 13 11 12 13 11 12 13 14 13 11 12 12 11 11 10 11 12 11 10 9 9 9 7 9 11 11 12 20 15 16 17 15 9 5 3 8 3 5 6 5 7 7 9 10 14 14 14 11 10 9 8 5 2 2 2 13 15 11
19 20 22 21 20 20 19 21 19 18 21 20 19 18 18 17 15 12 13 13 13 13 12 13 13 13 12 12 11 13 12 12 13 13 13 13 12 12 12 9 11 10 10 11 10 10 10 10 9 8 8 9 11 10 14 19 16 16 10 11 9 5 7 3 5 4 2 5 8 9 10 14 12 12 11 9 8 4 3 6 5 5 10 11 6
16 18 18 18 20 21 20 20 20 21 19 19 18 18 18 17 13 12 13 13 12 12 12 13 12 12 12 11 12 12 13 12 13 14 14 13 13 12 11 11 11 10 11 11 11 10 10 10 9 9 9 9 9 10 8 13 18 13 12 11 6 2 5 9 10 6 7 7 11 15 15 12 10 10 11 10 6 5 4 8 7 8 6 4 6
10 12 15 18 21 20 22 22 20 21 19 17 17 16 17 14 13 13 13 13 13 12 12 13 13 11 13 13 13 13 13 13 13 12 13 12 13 12 11 11 10 10 11 11 10 11 10 10 10 9 10 10 10 10 10 8 7 7 8 10 7 5 13 15 14 12 14 17 16 15 14 12 10 9 7 4 4 4 5 6 7 8 4 4 4
9 8 13 23 21 23 22 20 21 19 17 15 14 13 14 13 14 13 13 13 13 13 13 13 13 12 13 13 14 13 12 12 12 11 11 11 11 11 11 11 11 11 11 11 11 11 10 11 11 10 10 10 10 10 11 8 7 7 7 6 6 7 13 16 12 10 11 10 12 11 8 8 8 8 6 5 6 7 5 3 3 4 5 3 3
19 14 16 9 20 21 18 18 18 15 13 13 13 13 13 13 13 13 12 12 12 13 14 13 14 11 11 12 14 15 14 11 12 12 11 10 10 11 12 11 12 12 12 12 11 11 11 12 12 11 11 10 10 10 11 12 11 10 9 7 6 7 6 7 9 9 9 9 8 8 9 6 6 3 3 4 4 4 4 4 4 4 4 3 4
18 16 15 10 18 10 5 11 12 11 12 12 12 12 13 12 12 12 11 11 11 12 12 12 12 10 11 12 12 12 12 12 11 11 9 7 10 12 11 9 10 9 8 10 10 9 10 10 10 11 12 11 10 11 11 12 14 14 13 11 9 8 7 6 9 14 10 8 8 7 7 6 5 5 4 5 5 5 4 4 5 5 5 5 5
15 14 13 16 16 11 13 13 12 10 4 7 11 11 10 10 11 10 11 12 12 11 12 12 11 11 12 11 11 11 11 11 11 9 8 9 13 15 7 7 9 2 12 13 10 9 9 9 9 8 9 11 10 9 16 21 20 20 20 20 17 15 13 9 13 18 11 8 7 6 6 6 6 5 5 4 6 6 6 6 6 6 6 6 6
16 16 19 17 14 12 9 9 8 7 9 9 2 12 10 11 10 10 11 12 11 10 9 10 10 11 12 11 10 10 10 10 9 9 8 8 6 9 14 14 9 5 7 8 14 14 16 13 11 9 8 14 15 21 24 22 22 21 19 17 15 14 15 15 17 13 8 7 5 5 6 6 7 6 6 5 6 6 8 6 6 6 6 6 6
Wind_Direction
153 141 148 143 123 61 196 155 167 156 162 158 151 147 148 156 163 167 166 157 169 174 185 187 193 201 209 202 166 160 168 202 219 215 155 160 167 156 157 165 185 199 212 193 189 228 231 241 138 156 172 200 178 197 222 239 127 121 117 125 144 128 115 116 114 116 116 96 81 83 70 33 31 126 65 258 37 353 107 131 137 123 134 121 103
152 138 141 135 137 155 223 156 160 158 157 152 151 147 155 159 169 168 169 168 176 179 184 194 200 199 191 191 167 165 165 189 215 233 165 154 161 154 152 170 186 194 207 191 197 224 225 235 177 158 169 217 184 179 214 262 120 125 129 129 133 144 138 134 138 122 98 131 135 116 88 70 27 27 53 66 64 314 298 96 107 130 124 99 111
157 153 154 162 160 165 205 163 162 165 154 156 146 143 149 157 169 169 172 174 179 181 189 196 199 194 191 192 165 165 174 181 204 215 180 157 154 155 158 166 184 188 201 196 189 222 223 237 177 161 170 218 196 175 183 218 139 136 142 141 135 137 132 144 150 153 136 135 119 115 149 128 116 87 36 65 109 229 334 88 132 123 117 138 130
166 164 168 163 170 160 196 165 159 164 160 153 151 155 157 161 176 170 173 174 180 185 187 199 199 187 196 180 165 166 175 187 191 200 191 160 156 158 164 167 182 189 196 196 189 209 220 238 179 160 170 211 205 176 168 195 159 138 148 157 145 133 149 162 180 157 142 145 153 194 159 165 158 186 157 33 4 3 22 355 66 102 123 126 138
168 166 167 169 160 171 182 171 158 161 163 159 159 160 164 168 166 172 170 175 181 182 190 198 197 189 193 170 173 166 174 190 186 181 192 186 155 160 166 167 187 192 196 196 191 197 208 231 189 180 175 202 229 183 178 189 154 159 164 166 171 152 156 159 171 158 168 184 145 143 145 210 210 151 133 94 132 146 163 236 91 101 90 101 134
165 166 169 166 161 170 171 169 166 161 162 161 163 165 162 159 163 164 170 175 182 185 195 201 202 187 187 173 180 181 176 188 191 174 177 184 175 169 173 179 190 202 198 197 195 183 202 220 218 183 172 195 222 212 183 172 172 177 173 166 167 148 150 151 158 198 193 220 233 192 131 170 164 142 144 164 187 198 309 283 140 140 125 146 112
163 172 168 159 157 163 174 171 169 165 162 156 154 160 155 160 162 162 169 176 181 189 199 206 199 188 196 181 186 182 170 181 175 156 162 171 174 164 190 183 192 202 203 197 195 179 189 214 214 192 178 187 200 219 219 183 174 196 169 164 152 137 144 159 169 180 176 267 256 279 84 276 131 145 185 117 163 192 236 238 149 185 171 171 169
177 172 164 155 157 165 170 174 172 168 157 153 151 155 161 165 165 166 169 176 184 190 201 206 196 187 189 181 188 187 171 170 169 163 156 163 175 164 184 189 195 203 203 198 199 180 182 201 208 204 188 180 186 207 223 200 180 189 178 165 135 155 158 168 167 168 185 211 197 207 145 239 154 170 160 164 158 161 186 199 197 217 196 179 173
229 190 164 151 158 166 167 172 168 158 156 158 154 157 165 169 167 167 168 176 187 192 199 198 195 188 183 180 182 187 171 165 163 163 161 165 174 168 186 188 199 206 202 203 192 187 181 193 198 202 202 189 188 199 212 212 188 193 176 158 147 153 172 176 161 174 184 199 175 205 176 179 162 190 167 173 145 154 164 175 181 211 188 205 155
242 178 152 159 172 167 173 167 165 160 162 161 153 156 167 166 163 165 171 180 188 191 197 198 192 179 183 192 178 181 172 160 166 167 172 173 178 174 188 190 192 205 203 197 194 189 185 192 194 198 201 204 192 211 206 209 188 183 176 159 158 154 168 177 201 195 180 184 181 177 180 170 163 197 183 174 132 166 161 179 183 166 177 190 154
240 221 157 160 158 164 162 166 163 157 153 165 160 160 160 161 161 169 180 182 194 191 191 197 192 181 185 192 183 181 176 163 170 172 177 177 180 177 187 189 190 198 199 189 192 199 187 187 193 195 196 207 210 211 233 207 166 167 167 155 166 179 163 164 188 225 220 189 182 180 192 189 185 187 182 184 167 160 138 170 178 165 174 161 194
224 228 194 164 166 160 167 169 163 159 153 160 164 160 157 159 164 170 179 185 193 196 190 196 196 189 181 187 183 181 183 172 181 171 178 177 182 179 182 184 186 194 188 187 195 196 193 183 185 191 185 211 214 149 118 99 113 131 144 155 172 184 186 167 161 193 208 247 232 197 208 205 211 192 183 181 179 177 161 162 162 152 171 173 175
214 218 225 204 171 165 168 168 166 161 159 163 170 163 154 160 164 170 182 191 194 195 192 195 196 194 182 183 185 180 187 179 184 173 179 178 179 175 181 183 185 189 184 187 194 195 191 182 180 181 181 202 203 120 135 123 98 110 158 169 184 192 191 191 171 167 181 185 243 232 204 210 218 200 165 178 165 139 136 131 131 158 170 162 169
221 213 215 214 186 170 169 167 164 164 165 165 167 175 160 161 167 174 184 193 194 194 191 194 200 197 182 181 186 185 187 184 183 174 178 179 179 176 181 184 186 190 179 186 186 189 193 186 177 175 163 180 202 158 142 156 120 113 182 211 198 188 193 215 207 177 161 176 201 240 234 208 211 201 207 168 150 136 140 148 144 180 180 138 138
213 207 211 205 191 167 169 169 164 167 168 168 168 172 177 166 173 177 185 191 192 191 190 193 197 197 187 184 185 189 187 187 176 173 179 179 180 175 182 185 184 184 183 182 175 181 186 184 178 170 140 173 214 228 181 162 138 138 171 203 254 213 208 214 228 199 162 135 174 203 235 236 200 196 181 145 135 138 137 151 163 156 138 130 142
199 205 208 204 183 164 168 168 164 166 168 169 172 175 179 180 174 181 186 188 192 190 191 189 192 196 190 188 188 187 188 186 175 173 182 181 180 179 182 184 184 176 179 173 172 172 177 179 171 172 140 160 190 231 248 212 158 139 149 144 189 231 240 223 227 227 190 167 163 179 202 218 153 155 156 150 139 127 133 173 173 159 148 147 148
181 202 208 206 179 170 158 164 163 167 173 173 173 176 180 177 173 180 188 189 193 193 186 186 188 193 193 191 189 185 188 193 186 177 177 184 180 178 178 183 183 172 168 167 169 169 169 173 173 172 153 159 178 190 232 294 293 177 144 150 177 205 214 221 205 214 153 138 131 160 186 162 153 151 132 130 137 142 162 179 172 168 170 145 161
235 194 200 202 186 173 159 162 162 164 172 175 174 174 177 180 175 175 183 191 192 194 191 182 185 191 191 191 193 186 188 196 190 179 172 178 180 183 177 185 181 165 165 166 166 166 162 168 160 156 155 153 163 174 176 220 274 300 331 128 174 130 233 202 170 140 114 105 114 119 118 121 139 150 162 161 156 160 170 177 176 196 167 153 160
312 323 190 190 179 168 164 165 163 166 168 172 175 175 177 178 179 180 185 190 188 191 193 189 189 190 189 191 191 186 189 194 190 180 173 179 183 187 185 182 169 160 165 164 162 162 163 160 158 157 143 155 148 162 176 185 189 246 276 274 50 68 314 294 91 158 124 136 133 127 129 136 148 160 162 159 154 156 177 185 181 197 178 162 163
288 281 300 336 325 183 161 164 166 166 171 176 176 178 179 179 179 184 188 189 187 191 190 189 188 190 191 191 191 188 188 191 192 185 177 180 185 186 179 173 172 163 168 161 160 158 158 161 167 152 147 150 137 139 153 157 176 169 118 345 354 351 292 234 169 127 157 151 147 127 135 140 146 149 160 153 168 177 175 190 190 196 191 187 179
236 248 269 283 290 294 226 175 178 170 174 180 188 186 181 181 184 184 186 187 189 190 190 190 185 190 193 190 188 187 187 189 191 191 182 177 182 185 182 175 168 169 159 153 159 156 164 166 162 156 161 145 141 149 132 136 152 152 145 140 192 260 265 253 317 107 232 154 151 138 146 158 158 153 158 165 180 183 184 200 207 194 187 199 204
225 220 225 236 252 261 267 239 226 188 177 183 188 193 192 188 188 189 187 187 188 187 190 190 187 188 193 189 188 187 185 188 189 190 188 179 179 183 181 173 176 164 159 156 163 167 163 170 165 166 164 150 157 156 145 151 161 152 158 166 176 226 243 204 112 227 245 81 144 148 155 157 175 160 160 176 173 175 182 195 204 184 202 208 210
222 220 217 214 217 228 236 239 223 221 209 191 188 193 199 196 188 190 193 191 187 184 185 187 188 188 192 190 185 184 186 187 187 188 188 184 178 180 174 176 173 164 160 161 176 158 161 171 169 171 162 164 163 156 159 164 172 170 174 178 198 205 221 157 189 205 188 147 168 150 146 154 173 173 176 188 190 189 188 194 199 187 199 211 211
211 212 210 209 211 212 215 218 221 214 214 212 206 203 202 203 196 190 194 193 189 184 183 184 184 187 188 189 186 181 184 186 187 186 185 183 180 180 171 175 174 169 166 167 168 158 175 178 167 169 167 161 161 149 161 177 177 179 177 185 199 200 204 171 195 209 186 153 168 160 146 154 167 174 173 190 184 191 198 191 197 195 210 205 205
198 206 203 205 208 211 211 212 213 214 210 210 212 210 209 206 204 196 191 192 195 186 182 183 181 182 186 189 189 181 181 183 185 183 182 181 181 179 172 175 174 171 172 163 164 175 175 178 172 169 163 164 157 158 172 186 181 179 183 174 191 202 181 168 212 207 196 146 168 195 154 147 158 177 172 188 176 188 203 199 197 199 199 207 207
214 201 198 202 205 206 207 206 210 212 212 207 208 214 212 207 204 202 193 189 195 186 183 181 180 181 183 186 187 183 180 180 182 181 181 183 179 180 172 177 176 171 170 168 170 178 174 179 165 174 163 168 166 162 174 191 181 177 183 165 183 188 198 194 217 197 154 148 164 163 128 144 164 183 180 190 198 189 200 201 201 205 199 187 164
240 232 208 207 213 212 206 203 205 207 210 213 206 209 215 210 203 200 196 188 189 186 181 181 180 181 181 183 184 185 178 178 180 178 177 182 179 176 174 177 176 171 167 171 176 176 171 176 182 174 172 171 163 160 172 193 187 176 184 169 187 178 206 203 150 117 126 97 101 119 135 151 174 195 197 191 206 205 198 197 199 198 200 156 148
232 236 212 203 206 210 217 220 222 226 215 210 212 207 209 212 205 199 196 189 184 185 182 180 178 180 183 182 182 183 179 178 177 175 178 181 177 175 174 174 169 170 169 175 181 176 170 185 176 181 176 169 159 165 174 187 187 163 170 163 187 157 176 109 95 89 90 105 132 112 113 144 167 223 270 212 206 195 169 260 298 235 126 138 143
212 220 214 203 199 202 207 217 229 225 226 224 215 208 204 209 211 200 198 192 184 186 182 180 177 180 183 182 180 180 176 174 173 176 179 182 177 173 173 174 168 170 169 178 177 177 175 185 173 184 179 166 161 165 175 174 177 157 161 169 172 149 125 108 105 132 121 140 148 114 115 89 78 80 72 68 61 51 51 212 216 87 109 140 150
253 219 211 202 201 200 197 206 224 239 236 227 224 217 204 203 209 205 198 192 186 185 184 182 179 179 179 179 180 178 176 173 176 178 182 179 175 172 176 169 171 169 173 173 176 180 179 182 179 181 170 162 160 174 157 162 159 160 160 173 156 157 143 139 171 153 159 159 154 95 95 100 93 86 79 71 65 66 63 63 356 35 266 111 142
249 248 245 250 237 218 199 202 211 220 233 237 227 225 216 202 204 206 199 191 185 184 185 183 181 178 176 177 180 180 176 177 177 178 179 179 176 174 173 169 171 172 174 181 174 180 177 194 185 178 168 154 152 126 147 147 135 170 163 160 169 160 136 165 181 167 173 176 162 129 128 121 118 92 82 80 72 75 73 64 64 71 59 61 148
232 232 235 244 243 229 208 210 219 218 217 227 228 226 227 209 200 204 199 191 189 185 184 185 183 178 177 177 180 178 178 178 177 178 179 176 170 167 171 170 169 171 173 180 183 183 185 191 170 179 157 148 117 136 134 135 121 109 115 154 136 131 154 171 180 170 180 182 166 134 145 149 131 137 126 104 91 85 88 85 83 81 77 68 70
224 222 216 220 227 224 210 215 221 219 214 218 222 222 230 218 200 200 199 194 190 188 186 185 182 179 176 176 176 179 181 178 177 178 175 171 168 171 172 169 171 172 173 186 189 181 185 179 172 168 154 137 128 136 132 130 126 115 89 117 136 161 165 169 174 177 180 178 149 134 147 180 159 147 140 132 123 105 98 109 102 89 81 83 74
232 227 224 222 219 211 212 220 228 233 227 220 219 218 225 230 206 197 199 192 189 187 190 187 182 176 175 177 178 177 183 180 178 177 170 172 170 175 171 167 166 171 178 188 187 186 175 175 174 154 147 131 129 141 136 135 128 122 113 103 159 166 168 168 175 177 171 173 151 149 164 144 132 155 158 140 134 129 134 138 153 117 101 90 70
240 239 223 219 229 230 220 220 226 232 235 225 222 215 217 228 221 201 197 193 193 188 186 187 182 174 174 176 178 178 182 181 178 170 165 169 170 170 170 171 170 175 182 192 183 181 174 175 163 150 138 139 143 148 140 139 136 127 125 103 240 153 176 170 172 177 163 164 154 160 158 142 157 171 159 143 140 143 142 139 127 118 81 65 61
221 227 234 232 215 218 222 228 244 248 243 232 218 212 213 224 225 214 196 193 190 190 187 186 181 175 175 174 175 178 181 181 178 169 169 171 175 174 171 170 168 174 186 187 183 176 175 174 164 149 138 140 145 153 145 144 143 136 126 156 232 159 184 160 165 160 153 154 160 163 154 145 162 169 140 143 146 145 144 145 146 113 91 82 63
247 259 273 271 255 233 229 228 238 253 257 248 220 207 213 219 220 220 205 190 188 188 187 185 181 174 173 172 174 178 181 181 176 170 171 171 174 171 170 166 169 178 182 183 183 175 169 168 161 151 137 138 136 160 149 149 146 142 140 190 194 167 177 148 157 153 147 151 167 170 149 143 148 123 131 130 153 154 151 156 150 130 117 109 99
247 250 257 261 262 260 246 230 226 241 252 256 233 206 211 216 218 218 209 191 189 185 180 179 180 173 170 172 174 179 180 180 177 173 171 170 171 170 170 166 172 174 176 180 175 174 167 166 163 152 139 140 140 159 158 150 147 153 165 193 178 178 161 152 150 157 143 94 74 64 47 138 132 139 138 141 152 164 155 156 152 137 132 125 134
227 224 225 233 237 239 239 234 230 229 241 248 247 218 208 214 217 216 207 185 180 178 180 183 181 175 170 171 178 180 180 177 175 173 173 168 171 171 167 165 167 170 169 172 172 173 169 163 167 143 138 141 132 157 167 152 152 166 180 220 179 181 153 156 152 161 147 113 88 68 67 111 138 155 150 149 163 172 165 162 164 158 146 147 157
226 220 221 227 232 232 228 229 225 224 226 234 242 227 210 213 217 218 200 179 176 179 179 182 176 171 173 179 183 180 177 173 170 169 168 168 163 159 162 168 168 169 169 173 172 169 169 166 159 135 143 141 132 138 170 160 160 177 193 212 196 157 161 157 158 167 161 132 123 97 88 116 133 142 153 150 177 161 34 21 165 164 165 146 155
222 220 217 222 225 226 226 220 222 224 220 224 231 223 211 211 216 215 194 175 174 181 180 175 172 173 174 177 178 178 170 172 171 165 162 161 162 161 159 166 165 167 170 172 174 171 170 161 158 141 143 136 140 143 168 169 169 185 201 212 270 162 157 162 163 165 171 142 140 128 123 129 131 138 138 161 147 89 95 18 340 202 168 142 146
231 228 220 220 221 219 219 218 217 215 218 223 220 217 207 209 214 208 182 162 163 169 172 165 169 173 173 175 178 175 165 167 163 156 159 159 159 158 161 164 166 168 168 167 169 165 163 160 164 149 140 149 152 153 155 177 175 192 206 204 259 10 68 164 170 166 182 152 153 147 151 155 148 150 154 160 143 124 94 61 7 320 132 136 141
219 221 221 223 225 218 214 214 211 212 217 218 213 207 203 205 208 194 168 164 166 170 170 164 170 175 174 174 175 162 160 163 163 161 158 158 157 160 162 166 171 171 167 165 166 165 165 164 166 158 137 149 151 153 160 168 182 195 202 184 225 324 325 238 161 170 183 159 148 155 159 161 155 155 159 158 149 129 123 102 101 138 135 128 126
224 220 215 214 225 220 214 209 208 211 212 209 205 200 199 200 197 170 163 160 165 172 169 162 167 173 168 167 160 160 159 155 155 157 158 155 158 160 164 171 177 173 170 167 171 167 168 166 165 152 134 148 156 152 165 166 177 195 168 181 193 238 301 219 154 149 103 116 126 148 151 154 149 146 143 136 127 109 125 141 125 167 142 133 136
234 228 217 214 215 215 210 206 207 207 203 202 198 195 188 189 176 159 154 158 164 168 161 160 167 167 161 156 156 158 157 155 157 156 158 158 158 160 168 178 177 177 173 171 170 170 172 166 160 157 141 149 153 155 148 174 174 166 166 168 148 4 339 84 89 79 86 88 100 108 119 122 126 124 121 113 113 104 125 153 151 175 177 154 140
322 275 239 216 209 210 208 201 199 198 197 192 188 182 175 173 158 155 158 162 164 163 160 158 163 160 160 159 156 158 158 158 157 159 159 163 161 167 174 176 178 176 175 173 173 171 174 166 165 156 148 151 151 155 157 148 141 146 156 142 112 88 82 84 90 99 103 105 107 112 115 120 122 130 134 143 151 154 155 164 168 170 202 199 170
22 348 265 224 211 205 199 193 191 191 181 172 166 160 160 156 156 159 164 165 163 156 154 155 158 157 159 159 158 161 157 156 159 155 159 162 165 171 177 179 180 178 178 179 175 176 171 166 167 158 149 152 152 156 158 145 146 151 158 143 121 105 104 102 101 106 103 104 118 126 140 146 149 154 120 111 116 120 118 150 185 192 208 215 208
25 356 347 291 202 186 184 178 175 170 161 152 148 148 153 150 155 160 160 156 155 154 157 158 156 156 162 160 161 150 152 157 161 161 161 165 171 178 181 182 185 181 180 179 181 177 171 167 167 159 154 154 156 160 162 163 165 164 158 161 153 150 151 141 130 133 128 129 129 127 127 126 129 126 117 132 133 155 162 167 188 193 212 224 228
24 10 343 1 19 4 134 147 139 142 150 147 143 145 153 148 151 157 151 136 140 139 148 154 152 155 160 156 155 159 162 157 158 165 156 152 178 187 184 183 190 190 182 177 180 170 165 165 166 164 160 162 160 168 176 166 164 166 161 166 170 168 174 173 153 135 128 133 139 148 146 144 150 155 174 175 159 169 179 182 191 187 198 208 214
28 19 9 20 28 11 9 14 9 11 42 114 131 127 125 128 134 133 128 134 139 147 157 157 157 159 158 160 159 161 160 158 157 148 109 71 46 48 25 183 180 157 179 174 161 172 167 161 167 174 167 166 169 157 145 156 165 173 176 175 173 168 162 161 140 139 142 144 153 150 152 163 162 171 175 187 170 177 177 184 192 199 194 197 204
26 29 20 22 25 21 23 33 46 22 6 348 69 120 121 127 125 128 128 134 146 154 157 156 159 162 162 161 158 159 158 157 144 133 132 114 88 43 43 44 56 82 122 162 177 166 168 165 169 169 152 156 140 140 155 164 168 175 174 168 161 155 153 151 143 138 149 148 153 153 167 172 170 174 171 186 189 177 178 178 183 187 201 203 202